• MPC Preparation (Info)

  • MPEC 2021-B11 : 2019 OT

    The following Minor Planet Electronic Circular may be linked-to from your own Web pages, but must not otherwise be redistributed electronically.

    A form allowing access to any MPEC is at the bottom of this page.


    Read MPEC 2021-B10 Read MPEC 2021-B12


    M.P.E.C. 2021-B11                              Issued 2021 January 16, 15:00 UT
    
         The Minor Planet Electronic Circulars contain information on unusual
             minor planets and routine data on comets.  They are published
        on behalf of Division F of the International Astronomical Union by the
              Minor Planet Center, Smithsonian Astrophysical Observatory,
                              Cambridge, MA 02138, U.S.A.
    
                 Prepared using the Tamkin Foundation Computer Network
    
                                  MPC@CFA.HARVARD.EDU
                URL https://www.minorplanetcenter.net/    ISSN 1523-6714
    
                                     2019 OT                                 
    
    
                               Revision to MPEC 2019-O72                            
    
    Additional Observations:
         K19O00T KC2021 01 09.43379703 28 31.561+67 51 54.12         24.15GVEB011T14
         K19O00T KC2021 01 15.23793303 22 40.350+65 15 03.32         23.84GVEB011T14
    
    Observer details:
    T14 Mauna Kea-UH/Tholen NEO Follow-Up (CFHT).  Observers L. Wells, C. Crowder.
        Measurer D. J. Tholen.  3.6-m f/4.1 reflector + MegaCam.
    
    First and last observations above in comparison with prediction:
    Residuals in seconds of arc (or two decimals in degrees), reference and Delta-T
    210109 T14 0.13+ 0.00+    210115 T14 0.13+ 0.01+    MPO508627   +1.05 days
    
    Orbital elements:
    2019 OT                                             PHA, Earth MOID = 0.0224 AU
    Epoch 2020 Dec. 17.0 TT = JDT 2459200.5                 Veres
    M 248.11789              (2000.0)            P               Q
    n   0.44012999     Peri.  285.42180     -0.41264703     +0.66588361
    a   1.7116517      Node   302.15258     -0.24464383     -0.73829800
    e   0.5487672      Incl.   47.23457     -0.87742340     -0.10730834
    P   2.24           H   20.6           G   0.15           U   2
    Residuals in seconds of arc
    190724 T08  0.2+  0.2-    190725 L18  1.1+  0.3+    190725 K63  0.3+  0.0
    190724 T08  0.1+  0.1-    190725 L18  1.3+  0.4-    190725 K63  0.0   0.0
    190724 T08  0.1-  0.0     190725 J27  0.7+  0.2-    190726 G40  0.5-  0.2+
    190724 T08  0.0   0.0     190725 J27  0.4+  0.2-    190726 G40  0.1-  0.1+
    190724 A17  0.6-  0.7+    190725 J27  0.6+  0.3-    190726 G40  0.4-  0.3+
    190724 A17  0.2-  0.2-    190725 J27  0.4+  0.3-    190726 850  0.2+  0.2+
    190724 A17  0.0   0.2-    190725 W46  0.9+  0.4-    190726 850  0.1-  0.0
    190724 K61  1.4-  0.3+    190725 W46 (3.5-  2.4+)   190726 850  0.1-  0.2-
    190724 K61 (1.7-  0.3+)   190725 W46  0.7+  0.1-    190726 850  0.2-  0.1+
    190724 K61 (1.5-  0.7+)   190725 W34  0.2-  0.0     190726 850  0.0   0.3+
    190724 K61  1.1-  0.9+    190725 W34  0.0   0.1-    190726 658  0.7-  0.4+
    190724 K61  1.2-  0.3+    190725 W34  0.0   0.1+    190726 658  0.6-  0.4+
    190724 K61  1.3-  0.7+    190725 W34  0.2+  0.1-    190726 658  0.6-  0.4+
    190724 A17  0.6+  0.3-    190725 W34  0.2+  0.2-    190726 658  0.6-  0.4+
    190724 L34  0.4-  0.8+    190725 850  0.0   0.4+    190726 658  0.7-  0.4+
    190724 L34  0.0   0.3-    190725 850  0.1+  0.6+    190726 P93  0.7-  0.5+
    190724 L34  0.7+  0.1-    190725 850  0.0   0.5+    190726 P93  0.6-  0.1+
    190724 246  0.3+  0.0     190725 850  0.1-  0.5+    190726 P93 (1.1-  1.5+)
    190724 246  0.7+  0.3-    190725 850  0.3-  0.4+    190726 P93  0.6-  0.8+
    190724 246  0.1-  0.1+    190725 850  0.2+  0.4+    190726 P93  0.5-  0.2-
    190724 246  0.1-  0.3+    190725 850  0.0   0.2+    190726 C95  0.1-  1.2-
    190724 246  0.1+  0.1+    190725 Y00  0.4+  0.6-    190726 C95  0.3-  0.2-
    190724 246  0.4+  0.1+    190725 Y00  0.1-  0.1+    190726 089  0.0   0.2-
    190724 246  0.6+  0.2-    190725 Y00  0.6+  0.7-    190726 089  0.1-  0.5+
    190724 246  0.5+  0.1-    190725 Y00  0.1-  0.4-    190726 C95  0.0   0.0
    190724 246  0.1+  0.1+    190725 Y00  1.0+  0.3-    190726 089  0.6+  0.3-
    190724 246  0.4+  0.0     190725 Y00  0.0   0.7+    190726 089  0.1-  0.2-
    190724 C23  0.2+  0.1+    190725 Y00  1.0+  0.3+    190726 089 (0.2-  1.9-)
    190724 C23  0.7+  0.1-    190725 Y00  0.1+  0.9-    190726 089  0.1-  0.6+
    190724 104  0.1-  0.0     190725 Y00  0.8+  0.0     190726 089  0.4-  1.4-
    190724 C23  0.3-  0.4+    190725 H21  0.3-  0.4+    190726 089  0.2+  0.0
    190724 C23  0.4+  0.2+    190725 H21  0.7-  0.3+    190728 718  0.8+  1.0-
    190724 C23  0.1-  0.2+    190725 H21  0.4-  0.2+    190728 718  0.1-  0.2-
    190724 C23  0.3-  0.0     190725 H21  0.4-  0.1+    190728 718  0.2+  0.4-
    190724 104  0.1+  0.3-    190725 H21  0.3-  0.2+    190728 718 (2.4-  0.9-)
    190724 C23  0.3+  0.1+    190725 H21  0.4-  0.2+    190728 J95  0.1-  0.2+
    190724 C23  0.5+  0.2-    190725 H21  0.4-  0.1+    190728 J95  0.0   0.1-
    190724 104  0.3-  0.1-    190725 I47  0.0   0.2-    190728 J95  0.2-  0.3+
    190724 958 (2.1-  1.3+)   190725 I47  0.0   0.1+    190728 Z80  0.3+  0.1-
    190724 958 (1.6-  1.3+)   190725 I47  0.6+  0.0     190728 Z80  0.4+  0.0
    190724 L34 (1.7+  0.0 )   190725 I47  0.1+  0.0     190728 Z80  0.3+  0.0
    190724 958  0.6-  0.8+    190725 I47  0.3-  0.3+    190729 718  1.4+  0.1+
    190724 958  0.4-  0.5+    190725 I47  0.0   0.0     190729 718  1.2+  0.1-
    190724 C95  0.3-  0.2-    190725 T08  0.2+  0.0     190729 718  1.0+  0.4-
    190724 C95  0.0   0.1-    190725 T08  0.2+  0.0     190729 718  1.4+  0.2-
    190724 C95  0.2+  0.0     190725 T08  0.0   0.0     190729 718 (1.6+  0.5-)
    190724 C95  0.2+  0.1-    190725 T08  0.2+  0.2-    190729 718  1.2+  0.1-
    190724 C95  0.1+  0.2-    190725 F52  0.1+  0.1-    190729 B18  0.4-  0.1-
    190724 595  0.0   0.0     190725 E23  0.7-  0.5+    190729 B18  0.9-  0.5+
    190724 595  0.1+  0.2-    190725 E23  0.6-  0.4+    190729 B18  0.6+  0.2+
    190724 L01  0.0   0.1+    190725 E23  0.5-  0.3+    190729 B18  0.3-  0.1+
    190724 L01  0.2-  0.0     190725 E23  0.3-  0.4+    190729 B18  0.4-  0.3-
    190724 L01  0.3-  0.0     190725 E23  0.1-  0.3+    190729 B18  0.7+  0.1+
    190724 L01  0.1-  0.1+    190725 L04  0.5-  0.0     190729 B18  1.1+  0.3-
    190724 L01  0.2-  0.0     190725 L04  0.4-  0.2+    190729 B18  1.0-  0.1-
    190724 L01  0.1-  0.0     190725 L04  0.3-  0.1+    190729 203  0.2-  0.0
    190724 L01  0.2-  0.0     190725 L04  0.3-  0.2+    190729 203  0.1-  0.0
    190724 595  0.1-  0.2-    190725 G34  1.2-  0.2+    190729 196  0.6-  0.4-
    190724 L01  0.2-  0.3+    190725 G34  0.2+  0.0     190729 203  0.0   0.1-
    190724 L01  0.2-  0.1+    190725 C77  0.3-  0.1+    190729 196  0.2-  0.2-
    190724 C95  0.1-  0.2-    190725 246  0.2-  0.3+    190729 196  0.1+  0.4-
    190724 C47  0.2-  0.1-    190725 246  0.1+  0.4+    190729 K38  0.1-  0.0
    190724 J95  0.1+  0.1-    190725 C77  0.1-  0.1+    190729 K38  0.0   0.0
    190724 J69  0.2+  0.2-    190725 246  0.2-  0.3+    190729 K38  0.0   0.1+
    190724 J95  0.3+  0.3-    190725 G34  0.1-  0.1+    190729 K38  0.1+  0.1+
    190724 C47  0.0   0.1-    190725 246  0.3-  0.1+    190729 K38  0.0   0.3-
    190724 J95  0.2+  0.0     190725 246  0.2-  0.3+    190730 H45 (1.5+  0.3-)
    190724 C95  0.1+  0.0     190725 246  0.1-  0.4+    190730 H45  1.2+  0.0
    190724 J69  0.1+  0.2-    190725 246  0.0   0.2+    190730 H45  1.4-  0.2-
    190724 J95  0.2+  0.1-    190725 246  0.0   0.0     190730 H45  0.8+  0.3-
    190724 C47  0.2+  0.2-    190725 246  0.2+  0.1+    190730 H45  1.5+  0.2-
    190724 K61  0.9-  0.4-    190725 C77  0.6-  0.4+    190730 H45  0.8+  0.1+
    190724 K61  0.7-  0.5-    190725 G34  0.4-  0.1-    190730 H45  0.2+  0.1-
    190724 C47  0.2+  0.3-    190725 C77  0.1-  0.0     190730 H45  0.7+  0.3+
    190724 J69  0.2+  0.1-    190725 G34  1.0+  0.4-    190801 160  0.4+  0.3+
    190724 C95  0.0   0.1-    190725 L18  1.2-  0.3-    190801 160  0.4+  0.7+
    190724 C47  0.2+  0.2-    190725 L18  0.2-  0.4-    190801 160  0.4+  0.3+
    190724 K61  0.1-  0.2-    190725 L18  0.5+  0.2-    190803 160  0.0   0.3+
    190724 J69  0.3+  0.1+    190725 J95  0.1-  0.1+    190803 160  0.2-  0.1+
    190724 K61  1.1-  0.6-    190725 L18  0.5+  0.9-    190803 160  0.4-  0.2+
    190724 K61  1.0-  0.6-    190725 J95  0.1+  0.2-    190806 850  0.2+  0.5+
    190724 C47  0.0   0.1-    190725 J95  0.1-  0.2-    190806 850  0.7+  0.6+
    190724 J69  0.0   0.0     190725 J95  0.0   0.1-    190806 850  0.3-  0.3+
    190724 I93  0.3-  0.1+    190725 K19  0.2+  0.2-    190806 160  0.7-  0.2+
    190724 K61  0.3-  0.2+    190725 J69  0.0   0.1+    190806 160  0.2-  0.0
    190724 Z80  0.3+  0.2-    190725 K19  0.2+  0.1-    190806 160  0.2+  1.0-
    190724 C95  0.1+  0.0     190725 K19  0.0   0.1-    190819 I52  0.1-  1.2-
    190724 J69  0.3+  0.0     190725 K19  0.3-  0.2-    190819 I52  0.4-  0.2-
    190724 J69  0.1-  0.0     190725 K19  0.1+  0.1-    190819 I52  1.0-  0.2-
    190724 I93  0.2-  0.0     190725 J69  0.1+  0.2-    190819 I52  0.4-  0.2+
    190724 J69  0.1-  0.1-    190725 J69  0.2+  0.1-    190821 I52  0.2-  0.1+
    190724 I93  0.0   0.1-    190725 J69  0.1+  0.0     190821 I52  0.3-  0.2-
    190724 Z80  0.3+  0.1-    190725 J69  0.2+  0.0     190821 I52  0.1-  0.0
    190724 Z80  0.3+  0.0     190725 J69  0.1+  0.0     210109 T14  0.0   0.0
    190725 L18 (1.2+  1.5-)   190725 K63  0.2+  0.2-    210115 T14  0.0   0.0
    
    Ephemeris:
    2019 OT                  a,e,i = 1.71, 0.55, 47                  q = 0.7724
    Date    TT    R. A. (2000) Decl.     Delta      r    Elong.  Phase     V
    2020 12 17    04 50 31.8 +76 02 37   1.6425  2.3684   126.9    19.4    24.5
    ...
    2021 01 01    03 45 42.6 +71 25 10   1.5973  2.3095   125.3    20.3    24.4
    ...
    2021 01 09    03 29 09.1 +68 03 23   1.5937  2.2757   122.2    21.4    24.4
    ...
    2021 01 15    03 22 50.1 +65 21 31   1.6000  2.2492   119.1    22.5    24.5
    2021 01 16    03 22 11.4 +64 54 09   1.6017  2.2447   118.5    22.6    24.5
    2021 01 17    03 21 39.0 +64 26 43   1.6037  2.2401   117.9    22.8    24.5
    ...
    2021 01 23    03 20 19.8 +61 42 15   1.6194  2.2123   114.1    24.0    24.5
    ...
    2021 01 31    03 22 40.5 +58 07 31   1.6496  2.1736   108.5    25.5    24.5
    ...
    2021 02 15    03 35 32.0 +51 54 59   1.7287  2.0962    97.2    27.9    24.6
    
    A. U. Tomatic                (C) Copyright 2021 MPC           M.P.E.C. 2021-B11
    


    Read MPEC 2021-B10 Read MPEC 2021-B12


    MPEC number:

    Enter an MPEC number in one of the following forms:

    • 1997-B01 (the full form)
    • J97B01 (the packed version of the full form)
    • B01 (the abbreviated form)